Location: Hilton Head Island
(32.2163°N, 80.7526°W)
Time: 18:53:36
(UTC-04:00)

A-11 Canister half - Pass Details

Date: 21 February 2026
Orbit: 1525 x 1683 km, 47.3° (Epoch: 10 March)

Event Time Altitude Azimuth Distance (km) Brightness Sun altitude
Rises 23:10:00 0° 304° (NW) 4,676 12.0 -60.3°
Reaches altitude 10° 23:13:07 10° 299° (WNW) 3,698 11.3 -60.8°
Enters shadow 23:13:51 13° 298° (WNW) 3,474 11.1 -60.9°
